Tracking 19795 objects as of 18-Jul-2019
HD Live streaming from Space Station
objects crossing your sky now

ALEXIS

Track ALEXIS now!
10-day predictions
ALEXIS is classified as:


NORAD ID: 22638
Int'l Code: 1993-026A
Perigee: 746.3 km
Apogee: 824.7 km
Inclination: 69.9 °
Period: 100.4 minutes
Semi major axis: 7156 km
RCS: Unknown
Launch date: April 25, 1993
Source: United States (US)
Launch site: AIR FORCE WESTERN TEST RANGE (AFWTR)
aabbcc
Your satellite tracking list
Your tracking list is empty




NASA's NSSDC Master Catalog

Two Line Element Set (TLE):
1 22638U 93026A   19134.93264752 0.00000050  00000-0  17578-4 0    07
2 22638  69.9356  80.3910 0054793  99.8366 260.1634 14.34019521    03
Source of the keplerian elements: McCants